Location: Double Diamond Ranch
(30.2800°N, 103.5900°W)
Time: 22:58:58
(UTC-05:00)

Envisat - Visible Passes

Search period start: 20 April 2018 00:00
Search period end: 30 April 2018 00:00
Orbit: 764 x 766 km, 98.2° (Epoch: 20 April)

Date Brightness Start Highest point End Pass type
(mag) Time Alt. Az. Time Alt. Az. Time Alt. Az.
20 Apr 2.9 21:20:26 10° SSE 21:25:29 81° ENE 21:30:34 10° N visible
21 Apr 3.8 20:44:27 10° SE 20:48:56 32° ENE 20:53:24 10° N visible
21 Apr 5.2 22:24:07 10° SW 22:27:54 21° W 22:31:43 10° NW visible
22 Apr 3.7 21:46:08 10° S 21:51:03 53° W 21:56:01 10° NNW visible
23 Apr 3.0 21:09:24 10° SSE 21:14:22 62° ENE 21:19:22 10° N visible
23 Apr 5.9 22:52:40 10° WSW 22:53:40 11° W 22:54:41 10° W visible
24 Apr 4.9 22:12:26 10° SSW 22:16:42 27° W 22:21:00 10° NW visible
25 Apr 3.3 21:34:52 10° S 21:39:54 70° W 21:44:58 10° NNW visible
26 Apr 3.3 20:58:26 10° SSE 21:03:16 47° ENE 21:08:07 10° N visible
26 Apr 5.6 22:39:45 10° SW 22:42:26 14° W 22:45:08 10° WNW visible
27 Apr 4.4 22:00:54 10° SSW 22:05:31 36° W 22:10:10 10° NNW visible
28 Apr 3.0 21:23:42 10° SSE 21:28:46 90° E 21:33:51 10° NNW visible
29 Apr 5.4 22:27:41 10° SW 22:31:13 19° W 22:34:46 10° NW visible
